Wetbulb
61.21 60.86 60.42 60.93 61.02 62.10 63.25 64.66 66.35 66.54 66.04 65.56 65.22 64.54 63.89 62.52 61.88 61.76 61.06 60.08 59.68 58.27
60.84 61.47 60.95 61.90 62.69 62.84 64.45 64.76 65.95 66.18 65.71 65.89 65.48 64.46 63.76 62.73 61.70 61.10 61.02 60.35 59.45 57.96
60.68 61.78 62.65 63.79 63.57 63.65 64.55 65.26 65.34 65.45 65.55 65.42 65.02 64.68 63.78 63.13 62.59 60.72 60.70 59.70 58.26 57.02
61.07 61.93 63.52 63.99 64.73 64.60 65.48 65.29 64.90 65.39 65.04 64.83 64.28 64.26 64.31 63.41 62.01 60.17 59.84 58.62 57.96 56.50
62.38 62.15 62.42 63.35 64.87 65.40 64.75 65.26 64.99 64.97 64.37 63.91 63.56 63.13 62.63 62.03 60.15 59.69 58.43 57.57 56.75 56.01
62.57 62.51 62.68 63.47 63.14 63.32 63.92 63.94 64.25 64.25 63.86 63.39 62.80 61.81 61.92 61.20 59.50 59.33 58.66 57.79 56.39 54.21
61.74 61.57 62.32 62.39 61.83 61.95 62.37 60.28 61.72 61.47 61.85 61.66 60.34 60.40 59.81 59.19 58.58 58.60 57.73 57.09 55.37 53.65
61.80 62.01 61.00 60.33 61.07 60.91 61.56 61.29 61.13 58.99 57.35 57.43 59.11 58.61 57.81 57.14 56.14 56.00 54.72 54.76 54.07 53.01
60.05 60.06 59.53 59.66 59.59 59.66 60.30 60.39 60.35 56.42 56.16 56.34 56.89 48.20 47.83 52.85 54.42 53.86 53.00 51.80 51.12 49.08
58.34 58.12 58.20 58.44 58.48 58.38 58.20 57.16 56.54 57.66 56.94 56.99 57.76 43.30 44.39 45.29 54.65 52.57 52.14 50.48 49.43 46.96
55.81 54.93 55.13 56.15 55.77 54.99 54.79 54.93 55.45 55.21 56.20 55.91 54.85 42.21 42.76 42.94 53.85 50.85 48.70 48.14 46.03 46.49
49.38 52.30 52.26 51.94 52.30 52.14 53.29 53.43 54.70 55.03 54.42 52.88 47.45 40.00 40.02 45.39 48.53 46.80 46.04 44.92 44.14 45.66
46.21 47.29 48.95 49.62 50.18 49.12 50.35 50.41 50.38 50.02 50.87 44.84 45.00 39.28 40.37 45.63 46.95 44.81 43.73 43.35 42.70 38.58
45.31 44.87 45.98 47.45 48.35 48.37 48.46 49.55 48.26 47.65 47.90 47.27 44.94 41.02 40.55 41.77 45.87 44.72 43.16 42.68 40.90 40.06
MSLP
1007.38 1008.25 1008.75 1009.37 1009.93 1010.72 1011.61 1012.35 1013.03 1013.80 1014.43 1014.99 1015.63 1016.36 1016.96 1017.66 1018.09 1018.69 1019.25 1019.64 1019.98 1020.51
1006.54 1007.30 1007.80 1008.47 1009.34 1009.92 1010.81 1011.58 1012.43 1013.11 1013.80 1014.51 1015.14 1015.76 1016.43 1016.96 1017.50 1018.01 1018.56 1019.05 1019.66 1020.11
1005.02 1006.09 1007.01 1007.77 1008.60 1009.26 1010.12 1010.89 1011.70 1012.46 1013.13 1013.82 1014.44 1015.05 1015.80 1016.28 1016.88 1017.49 1018.01 1018.45 1019.15 1019.65
1004.37 1005.36 1006.55 1007.10 1007.82 1008.61 1009.54 1010.23 1010.82 1011.45 1012.26 1012.97 1013.60 1014.32 1014.83 1015.36 1016.00 1016.64 1017.37 1018.00 1018.50 1019.14
1004.07 1005.15 1005.93 1006.45 1007.19 1008.13 1008.90 1009.66 1010.05 1010.74 1011.52 1012.16 1012.92 1013.72 1014.26 1014.78 1015.36 1016.01 1016.74 1017.38 1018.05 1018.60
1004.13 1004.82 1005.59 1006.18 1007.11 1007.82 1008.67 1009.18 1009.82 1010.34 1010.98 1011.66 1012.39 1013.05 1013.63 1014.32 1014.76 1015.30 1015.94 1016.64 1017.38 1018.16
1003.66 1004.48 1005.13 1005.98 1006.90 1007.48 1008.32 1009.00 1009.35 1010.11 1010.57 1011.09 1012.02 1012.93 1013.72 1014.19 1014.71 1015.29 1015.77 1016.30 1016.91 1017.77
1003.12 1004.08 1004.93 1005.72 1006.51 1007.28 1007.94 1008.48 1009.19 1010.01 1010.31 1010.83 1011.22 1012.39 1013.12 1013.68 1014.41 1014.81 1015.45 1016.05 1016.61 1017.17
1003.34 1004.05 1004.69 1005.38 1006.03 1006.85 1007.56 1008.17 1008.72 1009.26 1009.98 1010.80 1011.46 1012.09 1012.34 1012.78 1013.52 1014.29 1014.64 1015.40 1016.28 1017.06
1003.07 1003.76 1004.48 1005.01 1005.71 1006.51 1007.23 1007.87 1008.43 1008.94 1009.78 1010.31 1010.82 1011.61 1012.05 1012.44 1012.99 1013.59 1014.34 1015.14 1015.83 1016.63
1003.21 1003.81 1004.41 1004.86 1005.35 1005.98 1006.90 1007.59 1008.21 1008.94 1009.56 1010.34 1010.79 1011.17 1011.73 1012.34 1012.78 1013.39 1014.07 1014.60 1015.75 1016.21
1004.54 1004.44 1004.69 1005.24 1005.76 1006.24 1006.79 1007.24 1008.35 1009.14 1009.61 1010.12 1011.00 1011.64 1012.29 1012.48 1012.88 1013.44 1014.12 1014.83 1015.97 1016.06
1005.84 1006.13 1006.08 1006.12 1006.59 1006.35 1005.85 1008.07 1008.74 1009.36 1009.69 1010.11 1011.23 1011.78 1012.33 1012.58 1013.10 1013.53 1014.14 1015.59 1015.76 1016.22
1007.46 1007.59 1007.79 1007.55 1007.48 1007.46 1007.37 1009.06 1009.44 1009.83 1009.78 1010.39 1011.15 1011.92 1012.39 1012.69 1013.10 1013.70 1014.59 1014.94 1015.61 1015.98
Wind_Speed
20 14 13 16 14 13 12 12 13 14 14 15 15 14 14 12 12 14 12 14 12 9
19 19 17 18 16 13 13 11 14 15 15 15 15 15 15 11 14 14 14 13 12 10
22 20 17 15 17 16 14 14 15 16 15 15 16 16 16 13 13 14 10 9 13 11
19 19 17 16 16 16 14 15 16 16 17 16 16 16 16 15 14 15 12 12 13 12
15 15 16 16 16 14 14 14 15 15 15 16 16 15 16 15 13 14 13 13 12 12
15 15 15 14 12 12 13 12 11 13 15 14 14 14 15 13 13 13 13 13 12 11
16 15 14 12 12 12 12 11 12 11 12 12 11 11 10 10 11 11 11 10 10 11
15 15 14 14 13 12 13 12 13 11 10 10 12 10 13 12 11 12 11 10 10 10
13 13 14 13 13 12 11 11 11 9 10 9 6 11 16 14 13 12 12 12 9 8
13 13 13 13 13 12 11 9 10 10 10 11 12 16 17 16 12 13 11 11 12 9
8 9 8 11 12 11 9 10 8 7 8 9 9 16 17 15 12 10 11 11 9 9
12 4 8 8 7 5 8 9 8 9 9 7 4 9 10 10 8 9 9 9 8 9
16 13 7 7 6 4 9 4 5 5 6 9 7 10 11 10 6 8 8 7 7 9
16 14 13 7 5 7 10 6 6 6 6 6 7 9 9 10 6 7 7 7 6 4
Wind_Direction
192 194 195 193 191 196 200 200 191 192 191 189 190 191 191 191 195 196 204 202 203 201
192 195 195 197 200 196 194 191 186 190 190 192 192 193 192 196 198 200 202 206 204 207
192 193 196 190 195 196 193 183 187 190 193 192 194 194 194 199 202 200 201 203 204 204
193 193 196 198 194 192 188 187 191 193 194 197 199 200 198 199 197 202 202 203 207 204
191 193 198 195 195 190 188 192 194 191 194 197 199 197 200 194 190 197 201 200 199 201
192 190 192 187 183 181 193 188 190 190 199 200 200 197 200 203 194 193 195 189 186 175
184 188 187 179 179 169 183 172 179 185 184 179 179 193 197 197 197 198 189 178 169 163
179 183 177 175 175 172 180 180 179 175 162 166 174 191 186 181 185 179 169 167 165 169
176 179 182 178 175 173 174 171 171 170 170 183 193 205 185 176 176 175 173 168 164 161
166 171 180 172 169 171 173 159 169 174 175 183 192 180 178 171 173 170 171 173 163 171
154 149 154 163 165 152 156 158 157 173 183 190 192 172 172 169 172 161 154 151 157 165
25 91 124 128 120 91 154 133 153 172 168 156 136 155 150 148 143 146 136 133 159 163
38 26 50 90 105 104 87 100 127 120 134 124 139 153 156 137 142 142 133 153 150 154
38 38 17 37 73 88 101 124 111 111 102 108 143 150 139 129 138 146 163 153 151 136